GPS BIIRM-2 (PRN 31)

Last updated on Sun Sep 14 2025 00:03:18 GMT+0000 (Coordinated Universal Time)

1 29486U 06042A 25255.79825051 .00000003 00000+0 00000+0 0 9998 2 29486 54.6858 162.3498 0106132 49.1341 323.0206 2.00557617138837
UTC large
Height (km)
Speed (km/s)
/
Latitude / Longitude
Inclination (degrees)
Orbital Period (minutes)
Azimuth
Elevation
Range (km)
Doppler Factor

Next 0 passes for location: London (51.5072 / 0.1276)

Sorry there are no passes over London.